Location: �perlecques
(50.8057°N, 2.1521°E)
Time: 12:27:15
(UTC+00:00)

Abrixas rocket - Pass Details

Date: 09 April 2020
Orbit: 345 x 352 km, 48.4° (Epoch: 25 May)

Event Time Altitude Azimuth Distance (km) Brightness Sun altitude
Rises 19:57:56 0° 274° (W) 2,161 7.1 -12.6°
Reaches altitude 10° 20:00:09 10° 261° (W) 1,319 5.5 -12.9°
Maximum altitude 20:02:38 25° 203° (SSW) 769 3.5 -13.2°
Enters shadow 20:03:47 19° 167° (SSE) 915 3.6 -13.4°
